COSMOS 252 DEB

基本信息
目录编号:
3898
目录名称:
COSMOS 252 DEB
国际标识:
1968-097BK
轨道中心:
EARTH
物体状态:
在轨
发射日期:
1968-11-01 UTC
轨道信息
数据来源: 国际轨道数据
星历时间: 2026-07-13T17:50:27+0800
半长轴: 7678.913km
偏心率: 0.0762182
轨道倾角: 62.265°
近地点辐角: 84.404°
升交点赤经: 303.620°
平近点角: 284.330°
近地点: 715.503km
远地点: 1886.049km
周期: 111.612分钟
每日圈数: 12.901886
详细信息
发射场:
TTMTR
轨道高度:
LEO
数据来源:
AOE Integration Group
参考系:
TEME
时间系统:
UTC
历元类型:
SGP4
2D轨道图
3D轨道图
轨道高度分析图
轨道倾角分析图
轨道综合分析图
查看轨道综合分析图